Location: Gray
(38.1584°N, 99.6421°W)
Time: 19:43:13
(UTC+00:00)

Daily predictions for brighter satellites

Satellite Brightness Start Highest point End
(mag) Time Altitude Azimuth Time Altitude Azimuth Time Altitude Azimuth
Envisat 4.5 12:00:52 10° NNE 12:05:38 40° E 12:10:22 10° SSE
deb Chang Zheng 4 4.0 12:03:01 10° N 12:07:03 39° WNW 12:11:05 10° SW
SKYMED 2 3.5 12:04:20 10° S 12:08:38 71° WSW 12:12:59 10° NNW
Meteor 1-4 Rocket 3.5 12:10:50 10° N 12:14:11 46° ENE 12:17:31 10° SSE
Cosmos 2084 4.3 12:10:06 11° NNW 12:14:14 50° NE 12:18:36 10° SE
ATLAS 2AS CENTAUR R/B 3.1 12:07:56 10° SSW 12:15:51 87° ESE 12:23:49 10° NNE
USA 234 3.2 12:09:48 10° NE 12:16:17 69° NW 12:22:46 10° WSW
H-2A R/B 3.7 12:14:35 10° NNE 12:18:16 41° E 12:21:53 10° S
USA 276 2.8 12:18:15 27° W 12:19:23 38° SW 12:22:19 10° SSE
Delta 2 Rocket 4.0 12:16:38 20° W 12:19:40 50° SSW 12:23:43 10° ESE
Okean O Rocket 4.1 12:16:35 10° NE 12:20:18 26° E 12:24:01 10° SSE
CENTAUR R/B 3.3 12:13:29 10° NNW 12:21:52 89° NE 12:30:48 10° SSE
ERBS 3.5 12:22:27 22° NW 12:22:52 22° NW 12:25:32 10° NNE
Cosmos 773 Rocket 4.5 12:18:40 13° NW 12:23:03 39° WSW 12:27:53 10° SSW
H-2A R/B 2.7 12:20:05 10° N 12:24:01 83° WNW 12:27:54 10° SSW
Meteor 1-26 Rocket 4.3 12:20:39 10° N 12:26:31 89° E 12:32:09 10° S
SL-16 R/B 3.6 12:28:22 16° W 12:29:48 17° W 12:33:18 10° SW
NOSS 3-2 (A) 4.3 12:22:44 10° NW 12:30:23 55° WSW 12:38:44 10° S
CZ-4C R/B 2.6 12:25:58 10° SSW 12:30:34 59° ESE 12:35:58 10° NE
Cosmos 1933 3.6 12:28:07 10° NNW 12:32:04 48° W 12:36:00 10° SSW
Cosmos 1633 3.2 12:33:16 10° SW 12:36:25 30° WNW 12:39:35 10° NNW
SMAP 4.3 12:31:56 10° NNE 12:36:25 46° E 12:40:52 10° S
SJ-7 4.3 12:32:40 10° N 12:36:42 73° WNW 12:40:45 10° SSW
Cosmos 1500 Rocket 4.4 12:32:52 10° S 12:37:04 54° E 12:41:17 10° NNE
CZ-4B DEB 4.3 12:31:45 10° NNE 12:37:14 82° ESE 12:42:41 10° SSW
ASTRO E2 4.2 12:37:05 10° WSW 12:40:36 30° S 12:44:07 10° ESE
RESURS DK-1 3.6 12:37:04 10° S 12:41:02 46° ESE 12:45:01 10° NE
YAOGAN 6 2.4 12:38:09 10° N 12:41:41 87° WNW 12:45:09 10° SSW
Okean 3 Rocket 4.4 12:39:17 10° SW 12:43:06 29° WNW 12:46:56 10° NNW
Cosmos 2151 4.5 12:40:40 10° WSW 12:43:09 15° WNW 12:45:39 10° NW
Cosmos 1151 Rocket 3.3 12:40:02 10° NNW 12:44:07 46° W 12:48:11 10° SSW
USA 238 DEB 4.2 12:37:14 10° NW 12:44:14 49° WSW 12:51:26 10° S
USA 238 4.2 12:37:20 10° NW 12:44:20 49° WSW 12:51:32 10° S
PSLV R/B 3.8 12:40:36 10° N 12:44:27 57° WNW 12:48:10 10° SSW
Cosmos 1844 Rocket 3.5 12:39:12 10° S 12:44:41 56° ESE 12:50:13 10° NNE
ERS-2 4.1 12:44:09 10° WSW 12:45:04 11° W 12:45:29 11° W
Cosmos 1328 Rocket 3.7 12:42:02 10° NNW 12:46:20 52° W 12:50:36 10° S
Meteor 2-3 Rocket 4.2 12:44:12 10° SW 12:49:31 40° WNW 12:54:55 10° N
Cosmos 990 Rocket 4.0 12:44:37 10° SSW 12:49:50 83° WNW 12:55:07 10° NNE
Cosmos 2181 Rocket 4.2 12:44:37 10° NNW 12:50:36 50° W 12:56:29 10° SSW
Lacrosse 4 Rocket 1.9 12:47:18 10° NNW 12:51:36 66° ENE 12:55:58 10° SE
Cosmos 1689 Rocket 3.7 12:49:47 10° SW 12:51:43 17° W 12:53:40 10° NW
BREEZE-M DEB (TANK) 3.1 12:48:36 10° WSW 12:51:49 71° NNW 13:01:42 10° NE
SL-4 R/B 3.6 12:49:35 10° WNW 12:52:08 16° NNW 12:54:35 10° NNE
NOAA 6 4.0 12:47:56 10° N 12:53:03 75° WNW 12:58:08 10° SSW
OAO 3 Rocket 4.1 12:49:00 10° W 12:53:22 39° SSW 12:57:47 10° SE
Cosmos 1782 2.9 12:50:25 10° NNW 12:54:22 58° W 12:58:19 10° S
COSMO-SKYMED 1 3.9 12:53:42 10° SW 12:56:53 20° W 13:00:05 10° NW
SJ 16-02 2.1 12:54:08 10° SW 12:58:03 31° WNW 13:02:00 10° N
Cosmos 1743 Rocket 3.6 12:54:20 10° S 12:58:44 80° W 13:03:13 10° N
Cosmos 1461 3.2 12:54:53 10° NW 12:59:33 68° WSW 13:03:59 10° SSE
Lacrosse 5 1.9 12:55:03 10° SW 13:00:04 62° NW 13:05:06 10° NE
Cosmos 2154 Rocket 4.2 12:54:42 10° S 13:00:53 82° E 13:07:09 10° N
Cosmos 1680 Rocket 3.7 12:55:35 10° NNW 13:00:56 83° ENE 13:06:15 10° SSE
BREEZE M DEB (TANK) 2.9 12:51:28 10° SW 13:01:15 78° NW 13:04:18 10° NE
FALCON 9 DEB 3.0 13:01:11 10° SW 13:04:22 87° SE 13:07:36 10° NE
Cosmos 1408 Rocket 4.3 13:01:25 10° SW 13:05:27 33° WNW 13:09:31 10° NNW
SL-16 R/B 3.5 23:48:31 10° SSE 23:52:34 21° E 23:56:38 10° NE
Abrixas rocket 3.3 23:51:16 10° NNW 23:53:30 21° NNE 23:55:43 10° ENE
Lacrosse 5 rocket 3.2 23:52:07 10° SE 23:53:39 12° ESE 23:55:10 10° E
Cosmos 1862 3.4 23:51:36 10° N 23:55:36 57° E 23:59:32 10° SSE
Cosmos 2292 4.2 23:53:11 10° S 23:56:07 57° E 23:59:20 10° NNE
